This is the latest recevied weather packets stored in our database for station/object SQ6XL-13. If no packets are shown the sender has not sent any weather packets the latest 10 day(s).
| Time | Temp. | Humidity | Pressure | Rain* | Wind** | Luminosity | Snow |
|---|---|---|---|---|---|---|---|
| 1787817300 | 18.89° C | 81% | 1021.7 hPa | 0 mm | - | - | - |
| 1787816805 | 18.89° C | 83% | 1021.8 hPa | 0 mm | - | - | - |
| 1787816243 | 18.33° C | 83% | 1021.7 hPa | 0 mm | - | - | - |
| 1787815730 | 17.78° C | 88% | 1021.7 hPa | 0 mm | - | - | - |
| 1787815225 | 17.78° C | 88% | 1021.8 hPa | 0 mm | - | - | - |
| 1787814700 | 17.78° C | 90% | 1021.7 hPa | 0 mm | - | - | - |
| 1787814103 | 17.22° C | 91% | 1021.7 hPa | 0 mm | - | - | - |
| 1787813560 | 16.67° C | 95% | 1021.6 hPa | 0 mm | - | - | - |
| 1787813025 | 16.11° C | 97% | 1021.4 hPa | 0 mm | - | - | - |
| 1787812543 | 16.11° C | 98% | 1021.5 hPa | 0 mm | - | - | - |
| 1787812060 | 15.56° C | 99% | 1021.5 hPa | 0 mm | - | - | - |
| 1787811515 | 15° C | 99% | 1021.5 hPa | 0 mm | - | - | - |
| 1787810990 | 13.89° C | 99% | 1021.4 hPa | 0 mm | - | - | - |
| 1787810435 | 13.33° C | 99% | 1021.6 hPa | 0 mm | - | - | - |
| 1787809840 | 13.33° C | 99% | 1021.4 hPa | 0 mm | - | - | - |
| 1787809270 | 12.78° C | 99% | 1021.4 hPa | 0 mm | - | - | - |
| 1787808765 | 12.22° C | 99% | 1021.4 hPa | 0 mm | - | - | - |
| 1787808283 | 11.67° C | 99% | 1021.5 hPa | 0 mm | - | - | - |
| 1787807711 | 11.11° C | 99% | 1021.5 hPa | 0 mm | - | - | - |
| 1787807190 | 11.11° C | 99% | 1021.5 hPa | 0 mm | - | - | - |
| 1787806595 | 10.56° C | 98% | 1021.5 hPa | 0 mm | - | - | - |
| 1787806060 | 10° C | 98% | 1021.4 hPa | 0 mm | - | - | - |
| 1787805575 | 10° C | 98% | 1021.4 hPa | 0 mm | - | - | - |
| 1787805043 | 10° C | 98% | 1021.4 hPa | 0 mm | - | - | - |
| 1787804463 | 10° C | 98% | 1021.4 hPa | 0 mm | - | - | - |
* Rain latest hour (hover to see other rain measurements)
** Current wind speed in m/s (hover to see current wind gust speed)